Content
SEND FEEDBACK

Daily
Averages
Monthly
Summary
United States of America

ST. LOUIS, MISSOURI


Home > North America > United States > Missouri
Elevation: 535 feet     Latitude: 38 45N     Longitude: 090 22W

WEATHER
 
SELECT A DAY
Number of Records: 196,364;   Date Range: 1/1/95 - 7/26/14
 
SHARE

PRINT THIS DATA

[ ← Previous Day ]
WEATHER ALMANAC - JANUARY 26, 2013
[ Next Day → ]
[ °C ]   °F
Weather ElementAverageHighLow
Temperature31.6 °F41 °F (3:54 pm)25 °F (7:54 am)
Dewpoint14.2 °F21 °F (3:54 am)9 °F (9:54 am)
Humidity50.6 %78 % (1:54 am)32 % (3:54 pm)
Barometer30.35 in30.43 in (9:54 am)30.28 in (1:54 am)
Wind Speed4.4 mph6.9 mph (8:54 am)
Weather ElementAverage
Visibility10 mi
Wind DirectionENE (61.3 °)

Weather ElementTotal
Precipitation---
Heating Degree Days32 (Base 65)
Averaged from 23 records on January 26, 2013
WEATHER CONDITIONS BREAKOUT
WIND DIRECTION BREAKOUT
WEATHER BY HOUR - JANUARY 26, 2013
[ °C ]   °F
Local TimeTemperatureDewpointHumidityBarometerVisibilityWind DirectionWind SpeedGust SpeedPrecipitationEventsConditions
1:54 AM26.1 °F19.9 °F78 %30.28 in10.0 miCalmClear
2:54 AM28.0 °F19.0 °F69 %30.28 in10.0 miCalmClear
3:54 AM32.0 °F21.0 °F64 %30.29 in10.0 miNorth (10°)5.8 mphClear
4:54 AM28.0 °F19.9 °F72 %30.31 in10.0 miNW (320°)5.8 mphClear
5:54 AM28.0 °F19.0 °F69 %30.35 in10.0 miNorth (10°)5.8 mphClear
6:54 AM26.1 °F14.0 °F60 %30.37 in10.0 miNorth (10°)5.8 mphScattered Clouds
7:54 AM25.0 °F12.0 °F58 %30.39 in10.0 miNE (40°)5.8 mphMostly Cloudy
8:54 AM26.1 °F10.9 °F53 %30.41 in10.0 miNE (40°)6.9 mphScattered Clouds
9:54 AM28.0 °F9.0 °F45 %30.43 in10.0 miENE (60°)5.8 mphScattered Clouds
10:54 AM30.0 °F10.0 °F43 %30.43 in10.0 miCalmScattered Clouds
11:54 AM32.0 °F9.0 °F38 %30.42 in10.0 miCalmPartly Cloudy
12:54 PM36.0 °F10.9 °F36 %30.38 in10.0 miVariable4.6 mphClear
1:54 PM37.9 °F12.9 °F36 %30.35 in10.0 miNNE (20°)5.8 mphClear
2:54 PM39.9 °F12.9 °F33 %30.33 in10.0 miNE (50°)5.8 mphPartly Cloudy
3:54 PM41.0 °F12.9 °F32 %30.32 in10.0 miNNE (30°)4.6 mphPartly Cloudy
4:54 PM39.0 °F10.9 °F32 %30.32 in10.0 miEast (100°)4.6 mphScattered Clouds
5:54 PM36.0 °F12.0 °F37 %30.34 in10.0 miEast (90°)4.6 mphScattered Clouds
6:54 PM36.0 °F12.9 °F39 %30.34 in10.0 miESE (110°)4.6 mphScattered Clouds
7:54 PM33.1 °F15.1 °F48 %30.34 in10.0 miESE (110°)6.9 mphScattered Clouds
8:54 PM30.9 °F15.1 °F52 %30.33 in10.0 miEast (100°)4.6 mphClear
9:54 PM30.0 °F15.1 °F54 %30.34 in10.0 miESE (110°)4.6 mphClear
10:54 PM28.0 °F15.1 °F58 %30.34 in10.0 miEast (100°)4.6 mphClear
11:54 PM28.9 °F16.0 °F58 %30.32 in10.0 miEast (100°)4.6 mphClear
Hourly data recorded from KSUS, located miles away from St. Louis, Missouri







STORIES FROM OUR PARTNERS